Regional Weather Roundup
Issued by NWS

Home | Current Version | Previous Version | Graphics & Text | Print | Product List | Glossary On
Versions: 1 2 3 4 5 6 7 8 9 10 11 12 13 14 15 16 17 18 19 20 21 22 23 24 25 26 27 28 29 30 31 32 33 34 35 36 37 38 39 40 41 42 43 44 45 46 47 48 49 50
000
ASUS43 KIND 012109
RWRIN

WEATHER ROUNDUP FOR INDIANA
NATIONAL WEATHER SERVICE INDIANAPOLIS IN
500 PM EDT FRI AUG 01 2014

NOTE: "FAIR" INDICATES FEW OR NO CLOUDS BELOW 12,000 FEET WITH NO
SIGNIFICANT WEATHER AND/OR OBSTRUCTIONS TO VISIBILITY.

* - STATION DOES NOT REPORT WEATHER SUCH AS PRECIPITATION OR FOG.

+ - STATION NOT QUALITY CONTROLLED BY THE NATIONAL WEATHER SERVICE.
    USE DATA WITH CAUTION...ESPECIALLY DEWPOINT AND RELATIVE
    HUMIDITY OBSERVATIONS.

INZ001>003-010>013-019-020-012200-
NORTHWEST INDIANA

CITY           SKY/WX    TMP DP  RH WIND       PRES   REMARKS
GARY /AIRPORT/ MOSUNNY   75  61  60 SE12      30.10S
KNOX *+        CLOUDY    70  61  73 N3        30.09F
LA PORTE +     CLOUDY    64  60  86 W6        30.11F
MICHIGAN CITY+ CLOUDY    70  57  64 S5        30.10F
MONTICELLO +   CLOUDY    75  65  71 CALM      30.08R
RENSSELAER +   PTSUNNY   77  59  53 NE12      30.09S
VALPARAISO     LGT RAIN  64  61  90 S7        30.11F

$$

LMZ046-743>745-012200-
SOUTHERN LAKE MICHIGAN

STATION/POSITION TIME  TEMP WIND        PRES
                       AIR  DIR/SP/G
                 (UTC) (F)  (DEG/KT/KT) (MB)
BURNS HARBOR     2100   72  150/  9/ 14   N/A
MICHIGAN CITY    2100   69  130/ 12/ 16   N/A

$$

INZ004-005-014>016-021>024-012200-
NORTH CENTRAL INDIANA

CITY           SKY/WX    TMP DP  RH WIND       PRES   REMARKS
ELKHART        CLOUDY    68  63  83 CALM      30.10F
GOSHEN         CLOUDY    72  61  68 W7        30.10S
LOGANSPORT +   PTSUNNY   77  59  53 W3        30.09S
PERU/GRISSOM   CLOUDY    80  60  51 W6        30.08S
ROCHESTER +    PTSUNNY   75  57  53 N10G16    30.10F
SOUTH BEND     CLOUDY    70  57  63 CALM      30.10F
WARSAW +       PTSUNNY   72  55  56 N6        30.10F

$$

INZ006>009-017-018-025>027-012200-
NORTHEAST INDIANA

CITY           SKY/WX    TMP DP  RH WIND       PRES   REMARKS
ANGOLA *+      SUNNY     77  55  47 NE5       30.10S
AUBURN +       MOSUNNY   77  54  44 CALM      30.10S
FORT WAYNE     MOSUNNY   81  59  47 SE5       30.09F
HUNTINGTON +   SUNNY     81  55  41 S5        30.07F

$$

INZ028-029-035-036-043>045-051>053-012200-
WEST CENTRAL INDIANA

CITY           SKY/WX    TMP DP  RH WIND       PRES   REMARKS
GREENCASTLE +  CLOUDY    77  63  61 N3        30.08S
LAFAYETTE      TSTM      64  60  87 N13       30.12R FOG
TERRE HAUTE    CLOUDY    80  63  55 CALM      30.07S

$$

INZ030>032-037>040-046>048-054>057-064-065-012200-
CENTRAL INDIANA

CITY           SKY/WX    TMP DP  RH WIND       PRES   REMARKS
CP ATTERBURY + MOSUNNY   81  59  47 SW3       30.07S
COLUMBUS       PTSUNNY   81  59  47 CALM      30.07S
GREENWOOD *+   MOSUNNY   82  64  54 CALM      30.07F
INDIANAPOLIS   PTSUNNY   78  59  51 SE5       30.06F
-EAGLE CREEK   LGT RAIN  78  57  48 VRB3      30.06F
KOKOMO *+      MOSUNNY   79  61  53 SE3       30.08S
MARION +       SUNNY     80  56  43 CALM      30.08F
MT COMFORT *+  SUNNY     77  66  69 CALM      30.08F
SHELBYVILLE    PTSUNNY   82  62  50 CALM      30.07S
ZIONSVILLE +   MOSUNNY   78  58  48 SE5       30.08F

$$

INZ033-034-041-042-049-050-058-059-012200-
EAST CENTRAL INDIANA

CITY           SKY/WX    TMP DP  RH WIND       PRES   REMARKS
MUNCIE         CLOUDY    79  60  52 NE7       30.08F

$$

INZ060-061-067>069-081>083-085>088-012200-
SOUTHWEST INDIANA

CITY           SKY/WX    TMP DP  RH WIND       PRES   REMARKS
EVANSVILLE     SUNNY     85  56  37 E5        30.04F
WASHINGTON +   SUNNY     83  62  47 SE5       30.04F

$$

INZ062-063-066-070>080-084-089>092-012200-
SOUTH CENTRAL AND SOUTHEAST INDIANA

CITY           SKY/WX    TMP DP  RH WIND       PRES   REMARKS
BLOOMINGTON    MOSUNNY   82  59  45 W3        30.06F

$$



USA.gov is the U.S. government's official web portal to all federal, state and local government web resources and services.